User: anonymous   Login
Location: Appeville
(49.3218°N, 1.3427°W)
Time: 13:41:34
(UTC+00:00)
Language:

Meteor 1-27 Rocket - Orbit

View from above orbital plane
View from above orbital plane
View from above satellite
View from above satellite

Ground track
Ground track

The orbit data is extracted from the following two-line orbital elements,

1  9904U 77024B   20056.47902579 -.00000108  00000-0 -71448-4 0  9997
2  9904  81.2594 259.6868 0056516  79.7471 281.0064 14.06887907201065
Epoch (UTC): 25 February 2020 11:29:47
Eccentricity: 0.0056516
inclination: 81.2594°
perigee height: 829 km
apogee height: 911 km
right ascension of ascending node: 259.6868°
argument of perigee: 79.7471°
revolutions per day: 14.06887907
mean anomaly at epoch: 281.0064°
orbit number at epoch: 20106

The dashed part of the orbit path shows where the satellite is in the earth's shadow,  

DLR